Regional Weather Roundup
Issued by NWS Northern Indiana

Home | Current Version | Previous Version | Graphics & Text | Print | Product List | Glossary On
Versions: 1 2 3 4 5 6 7 8 9 10 11 12 13 14 15 16 17 18 19 20 21 22 23 24 25 26 27 28 29 30 31 32 33 34 35 36 37 38 39 40 41 42 43 44 45 46 47 48 49 50
000
ASUS43 KIWX 231910
RWRIWX

KIWX WEATHER ROUNDUP
NATIONAL WEATHER SERVICE NORTHERN INDIANA
300 PM EDT THU OCT 23 2014

NOTE: "FAIR" INDICATES FEW OR NO CLOUDS BELOW 12,000 FEET WITH NO
SIGNIFICANT WEATHER AND/OR OBSTRUCTIONS TO VISIBILITY.

* THESE STATIONS ARE NOT UNDER NWS QUALITY CONTROL. THEY ALSO MAY NOT
  REPORT WEATHER SUCH AS PRECIPITATION OR FOG.

INZ001>027-232000-
NORTHERN INDIANA

CITY           SKY/WX    TMP DP  RH WIND       PRES   REMARKS
GARY*          MOSUNNY   61  41  48 S6        30.14F
VALPARAISO     SUNNY     58  40  51 SW6       30.15F
MICHIGAN CITY* SUNNY     57  37  47 CALM      30.15F
LAPORTE*       SUNNY     59  42  53 S6        30.16F
KNOX*          SUNNY     58  40  49 S6        30.16F
SOUTH BEND     SUNNY     58  39  49 W8        30.18F
ELKHART*       SUNNY     57  39  51 SW5       30.17F
GOSHEN         SUNNY     57  42  57 SW6       30.17F
MONTICELLO*    HAZE      57  42  59 CALM      30.16F VSB 1
LOGANSPORT*    SUNNY     55  39  54 SW6       30.17F
ROCHESTER*     SUNNY     61  41  48 SW3       30.17F
WARSAW*        SUNNY     55  39  54 S7        30.17F
ANGOLA*          N/A     57  39  51 SW12      30.16F
FORT WAYNE     MOSUNNY   57  39  51 CALM      30.18F
HUNTINGTON*    SUNNY     57  41  54 W3        30.17F
PERU/GRISSOM   SUNNY     57  44  62 SW5       30.16F
MARION*        SUNNY     57  37  46 CALM      30.18F

$$
INZ028>050-232000-
CENTRAL INDIANA

CITY           SKY/WX    TMP DP  RH WIND       PRES   REMARKS
LAFAYETTE      PTSUNNY   56  39  53 W5        30.17F
KOKOMO*        SUNNY     59  39  47 W7        30.17F
MUNCIE*        SUNNY     58  40  51 CALM      30.18F
INDIANAPOLIS   PTSUNNY   56  38  50 S3        30.17F

$$
MIZ043>046-050>051-056>058-064>065-071>073-077>080-232000-
SOUTHWEST LOWER MICHIGAN

CITY           SKY/WX    TMP DP  RH WIND       PRES   REMARKS
BATTLE CREEK   SUNNY     55  37  50 SW6       30.17F
BENTON HARBOR  SUNNY     56  41  57 W14       30.17F
COLDWATER*     SUNNY     57  37  47 W5        30.17S
HILLSDALE*     SUNNY     57  39  51 W3        30.16F
HOLLAND        MOSUNNY   58  42  55 W12       30.18F
GRAND RAPIDS   MOSUNNY   57  40  52 S8        30.16F
KALAMAZOO      SUNNY     57  39  51 CALM      30.17F
STURGIS*       SUNNY     55  43  62 S6        30.17S
THREE RIVERS*  FAIR      57  39  52 CALM      30.17F

$$
OHZ001>008-015>018-024>025-232000-
NORTHWEST OHIO

CITY           SKY/WX    TMP DP  RH WIND       PRES   REMARKS
WAUSEON*       FAIR      57  41  54 CALM      30.17F
DEFIANCE       SUNNY     56  40  55 CALM      30.18F
FINDLAY        SUNNY     55  42  61 CALM      30.17F
TOLEDO EXPRESS MOSUNNY   56  40  55 VRB6      30.17F
TOLEDO METCALF SUNNY     56  39  53 SW5       30.18F
LIMA           SUNNY     56  40  55 VRB5      30.17F

$$
AND FOR LAKE MICHIGAN COASTAL AND OPEN LAKE BUOY OBSERVATIONS

STATION/POSITION TEMP    WIND        PRES    VSBY  WAVE
                 AIR SEA DIR/SP/G                  HT/PER
                 (F)     (DEG/KT/KT) (MB)    (MI)  (FT/S)
CALUMET HARBOR    58     200/  8/ 10 1019.1F
MICHIGAN CITY     57     310/  3/  5   N/A
SAINT JOSEPH      56                 1022.0S
SOUTH LAKE BUOY   52 54  180/ 14/ 16 1020.7F         2/ 4
SAINT JOSEPH CG                      1022.6      6   1

$$
&&



USA.gov is the U.S. government's official web portal to all federal, state and local government web resources and services.